Tracking 27405 objects as of 2-Jun-2023
HD Live streaming from Space Station
objects crossing your sky now

STARLINK-3609

Track STARLINK-3609 now!
10-day predictions
STARLINK-3609 is classified as:


NORAD ID: 51808
Int'l Code: 2022-017AS
Perigee: 546.2 km
Apogee: 547.6 km
Inclination: 53.2 °
Period: 95.4 minutes
Semi major axis: 6917 km
RCS: Unknown
Launch date: February 25, 2022
Source: United States (US)
Launch site: AIR FORCE WESTERN TEST RANGE (AFWTR)
Your satellite tracking list
Your tracking list is empty




NASA's NSSDC Master Catalog

Two Line Element Set (TLE):
1 51808U 22017AS  23152.87366822  .00000792  00000-0  67851-4 0  9998
2 51808  53.2166 201.3419 0001007  67.7826 292.3273 15.08842763 71214
Source of the keplerian elements: AFSPC